Location: Pita
(10.8167°N, 12.7000°W)
Time: 08:34:43
(UTC+00:00)

Daily predictions for brighter satellites

Satellite Brightness Start Highest point End
(mag) Time Altitude Azimuth Time Altitude Azimuth Time Altitude Azimuth
Cosmos 44 4.2 18:43:42 10° S 18:48:23 33° ESE 18:52:53 10° NE
Cosmos 2058 Rocket 3.3 18:45:26 10° S 18:49:48 75° W 18:54:08 10° N
Cosmos 2285 Rocket 4.3 18:44:18 10° N 18:50:20 43° ENE 18:56:18 10° SSE
ATLAS 3B R/B 3.4 18:46:19 10° S 18:52:21 32° ESE 18:58:13 10° NE
USA 215 3.4 18:50:49 10° SE 18:57:23 83° SW 19:03:57 10° NW
Okean-O 2.6 18:53:44 10° SSE 18:58:10 79° ENE 19:02:34 10° N
SMAP 3.9 18:54:45 10° S 18:59:18 56° WSW 19:03:50 10° NNW
Cosmos 1339 Rocket 4.4 18:54:44 10° S 19:00:43 65° E 19:06:43 10° NNE
ASTEX 1 3.5 18:56:16 10° N 19:01:14 87° W 19:06:15 10° S
CENTAUR R/B 2.7 18:58:54 10° S 19:03:46 37° ESE 19:09:01 10° NE
Cosmos 1908 3.5 19:02:43 10° S 19:06:36 74° W 19:10:30 10° N
Centaur AC-146 4.5 19:04:21 10° W 19:09:05 60° S 19:57:31 10° ESE
Centaur AC-146 4.5 19:04:20 10° W 19:09:05 60° S 19:57:31 10° ESE
Centaur AC-146 4.5 19:04:20 10° W 19:09:06 60° S 19:57:31 10° ESE
Atlas Centaur 2 2.2 19:06:48 10° NW 19:13:23 70° NNE 19:18:04 13° ESE
Cosmos 2278 Rocket 3.9 19:13:00 10° SW 19:18:04 34° WNW 19:23:10 10° N
Cosmos 2297 3.9 19:12:57 10° S 19:18:24 50° ESE 19:23:51 10° NNE
NOAA 12 4.5 19:16:22 10° S 19:21:34 69° WSW 19:26:48 10° NNW
Cosmos 1727 Rocket 3.9 19:17:28 10° S 19:23:38 69° E 19:29:45 10° N
ARIANE 5 R/B 3.0 19:22:07 10° WSW 19:25:31 17° SSW 19:27:18 10° SSE
Cosmos 968 Rocket 3.9 19:24:34 10° NNW 19:29:46 67° WSW 19:34:55 10° S
Cosmos 468 Rocket 4.4 19:26:50 10° S 19:31:48 41° E 19:35:59 14° NE
CZ-4C R/B 3.2 19:24:38 10° NNW 19:32:52 90° ENE 19:41:17 10° SSE
Cosmos 1605 Rocket 4.0 19:28:35 10° N 19:34:32 54° E 19:40:26 10° SSE
Cosmos 1354 Rocket 4.4 19:31:06 10° NNW 19:36:15 66° WSW 19:41:27 10° S
SWIFT 2.3 19:32:06 10° WSW 19:36:21 71° SSE 19:38:03 35° E
Lacrosse 5 rocket 2.8 19:34:02 10° N 19:36:15 21° NE 19:36:15 21° NE
CSL-04 Rocket 3.6 19:31:56 10° SSE 19:37:26 65° ENE 19:42:54 10° N
GPS 2-12 Rocket1 4.3 19:38:02 10° NW 19:41:56 26° N 19:43:12 23° NNE
Cosmos 1934 Rocket 4.3 19:36:55 10° N 19:43:14 70° W 19:49:32 10° S
SEDSat Delta rocket 3.8 19:38:17 10° WSW 19:43:17 51° NNW 19:45:37 26° NNE
USA 234 3.2 19:37:23 12° NE 19:43:36 83° SE 19:50:09 10° SW
Intelsat 5-2 Rocket 4.3 19:42:34 10° WNW 19:46:52 63° NNE 19:53:05 26° E
Cosmos 1242 Rocket 3.5 19:43:46 10° NNW 19:47:17 49° W 19:50:48 10° S
Cosmos 1812 Rocket 4.2 19:43:28 10° SSW 19:47:45 57° W 19:52:04 10° N
NOAA 11 4.4 19:42:47 10° SSE 19:47:57 44° ENE 19:53:05 10° N
Cosmos 1328 4.4 19:44:15 10° NNW 19:48:06 56° W 19:51:56 10° S
CZ-4 R/B 2.3 19:46:16 10° S 19:50:13 51° W 19:54:14 10° NNW
Cosmos 1000 Rocket 4.4 19:47:59 10° S 19:54:00 61° E 20:00:04 10° NNE
YAOGAN 1 3.0 19:53:03 10° S 19:57:19 62° WSW 20:01:34 10° NNW
OAO 1 Rocket 4.3 19:55:21 10° NW 20:00:38 73° NE 20:01:39 56° E
Cosmos 1300 4.2 20:02:20 10° SSW 20:05:52 37° W 20:09:25 10° NNW
SL-24 R/B 4.4 20:03:16 10° N 20:08:10 72° WNW 20:12:29 10° SSW
Cosmos 2369 Rocket 3.8 20:09:17 10° S 20:11:13 20° SSE 20:11:13 20° SSE
Cosmos 1763 Rocket 3.4 20:09:30 10° SSW 20:14:48 86° WNW 20:16:00 55° N
Centaur D-1A AC-31 2.3 20:14:19 10° W 20:16:41 28° NW 20:16:41 28° NW
ASTRO E2 3.7 20:13:41 10° WNW 20:16:33 44° W 20:16:33 44° W
Cosmos 839 Rocket 4.4 20:24:09 10° NNW 20:31:12 80° ENE 20:34:52 38° SSE
ATLAS 3B R/B 4.4 20:37:02 10° WSW 20:42:47 28° WNW 20:48:24 10° N
ADEOS Rocket 3.5 20:36:56 10° N 20:44:05 66° WNW 20:50:34 10° SSW
ISO 4.4 20:43:39 10° SW 20:44:57 21° SSW 20:44:57 21° SSW
COSMOS 2406 4.4 20:43:06 10° NW 20:48:23 40° WSW 20:50:38 28° SSW
Cosmos 1943 Rocket 3.8 20:43:47 10° SSW 20:46:05 26° SSW 20:46:05 26° SSW
Atlas Centaur 2 4.1 20:57:54 10° W 21:00:44 20° WSW 21:00:44 20° WSW
CZ-3A R/B 4.4 20:11:02 10° WNW 21:21:49 65° N 21:22:04 65° NNE
CZ-3B R/B 4.3 21:23:00 10° WNW 21:43:29 69° N 21:43:29 69° N
